KKSNEWCA7 Weather Reports


Display with metric or nautical units.
time (UTC)temp
F
wind
direction
speed
MPH
gust
MPH
rain 1hr
in
rain 24hr
in
rain mn
in
humidity
%
barometer
mb
20260504204606 84 148 7.0 10.0 0.00 0.00 0.00 31 1003.5
20260504204020 83 213 4.0 9.0 0.00 0.00 0.00 32 1003.4
20260504203520 83 188 6.0 9.0 0.00 0.00 0.00 33 1003.3
20260504203106 82 168 6.0 10.0 0.00 0.00 0.00 33 1003.4
20260504202511 82 207 5.0 10.0 0.00 0.00 0.00 33 1003.5
20260504202010 82 172 7.0 10.0 0.00 0.00 0.00 33 1003.5
20260504201532 83 231 6.0 10.0 0.00 0.00 0.00 33 1003.7
20260504201011 83 217 5.0 9.0 0.00 0.00 0.00 34 1003.7
20260504200512 82 177 5.0 9.0 0.00 0.00 0.00 32 1003.8
20260504200030 82 215 6.0 9.0 0.00 0.00 0.00 33 1003.8
20260504195510 82 175 6.0 10.0 0.00 0.00 0.00 33 1003.8
20260504195012 82 191 4.0 9.0 0.00 0.00 0.00 34 1003.9
20260504194531 82 230 5.0 10.0 0.00 0.00 0.00 34 1004.0
20260504194012 82 160 6.0 9.0 0.00 0.00 0.00 34 1003.9
20260504193511 81 157 5.0 9.0 0.00 0.00 0.00 36 1003.9
20260504193031 82 246 5.0 9.0 0.00 0.00 0.00 39 1003.9
20260504192512 82 236 3.0 9.0 0.00 0.00 0.00 35 1004.0
20260504192010 82 211 4.0 9.0 0.00 0.00 0.00 36 1004.1
20260504191528 81 200 5.0 9.0 0.00 0.00 0.00 35 1004.2
20260504191011 82 215 4.0 6.0 0.00 0.00 0.00 35 1004.4
20260504190512 82 211 3.0 9.0 0.00 0.00 0.00 35 1004.3
20260504190030 82 172 3.0 9.0 0.00 0.00 0.00 34 1004.4
20260504185512 83 123 1.0 8.0 0.00 0.00 0.00 34 1004.5
20260504185017 82 146 6.0 8.0 0.00 0.00 0.00 33 1004.4
20260504184535 82 233 0.0 10.0 0.00 0.00 0.00 36 1004.5
20260504184012 82 248 5.0 10.0 0.00 0.00 0.00 38 1004.6
20260504183509 82 234 1.0 5.0 0.00 0.00 0.00 37 1004.6
20260504183032 82 11 1.0 9.0 0.00 0.00 0.00 39 1004.5
20260504182511 82 101 2.0 9.0 0.00 0.00 0.00 35 1004.5
20260504182013 81 176 6.0 9.0 0.00 0.00 0.00 34 1004.4
20260504181536 81 88 3.0 10.0 0.00 0.00 0.00 38 1004.4
20260504181015 81 154 4.0 10.0 0.00 0.00 0.00 36 1004.5
20260504180511 80 130 3.0 6.0 0.00 0.00 0.00 38 1004.7
20260504180032 79 190 1.0 6.0 0.00 0.00 0.00 39 1004.6
20260504175510 79 44 3.0 5.0 0.00 0.00 0.00 44 1004.5
20260504175011 79 56 2.0 5.0 0.00 0.00 0.00 41 1004.5
20260504174532 79 74 2.0 6.0 0.00 0.00 0.00 42 1004.6
20260504174011 78 76 1.0 6.0 0.00 0.00 0.00 42 1004.6
20260504173510 78 52 3.0 8.0 0.00 0.00 0.00 46 1004.6
20260504173033 78 87 3.0 8.0 0.00 0.00 0.00 46 1004.6
20260504172512 78 76 3.0 8.0 0.00 0.00 0.00 40 1004.7
20260504172014 78 69 3.0 9.0 0.00 0.00 0.00 45 1004.7
20260504171535 78 5 5.0 9.0 0.00 0.00 0.00 46 1004.7
20260504171014 77 29 4.0 9.0 0.00 0.00 0.00 42 1004.7
20260504170519 77 11 4.0 9.0 0.00 0.00 0.00 44 1004.6
20260504151010 69 323 3.0 8.0 0.00 0.00 0.00 55 1004.8
20260504150511 68 308 3.0 9.0 0.00 0.00 0.00 55 1004.9
20260504141011 66 285 3.0 12.0 0.00 0.00 0.00 59 1004.8
20260504140513 65 316 7.0 14.0 0.00 0.00 0.00 58 1004.7
20260504130513 60 334 2.0 5.0 0.00 0.00 0.00 72 1004.3
20260504110513 50 242 0.0 2.0 0.00 0.00 0.00 85 1004.0
20260504100514 47 355 0.0 0.0 0.00 0.00 0.00 81 1004.4
20260504081537 54 282 2.0 5.0 0.00 0.00 0.00 77 1004.9
20260504081014 52 300 1.0 5.0 0.00 0.00 0.00 76 1004.9
20260504080514 52 229 1.0 3.0 0.00 0.00 0.00 75 1005.1
20260504050516 59 218 0.0 2.0 0.00 0.00 0.00 67 1006.2
20260504045515 60 218 0.0 2.0 0.00 0.00 0.00 67 1006.4
20260504045014 61 218 0.0 3.0 0.00 0.00 0.00 68 1006.5
20260504044538 61 218 1.0 3.0 0.00 0.00 0.00 69 1006.5
20260504044015 61 218 2.0 3.0 0.00 0.00 0.00 66 1006.6
20260504043514 61 184 1.0 3.0 0.00 0.00 0.00 66 1006.6
20260504043041 61 189 1.0 7.0 0.00 0.00 0.00 66 1006.8
20260504042513 61 153 4.0 7.0 0.00 0.00 0.00 66 1006.8
20260504042013 60 136 1.0 2.0 0.00 0.00 0.00 67 1006.9
20260504041534 60 136 0.0 2.0 0.00 0.00 0.00 68 1007.0
20260504041014 59 136 0.0 2.0 0.00 0.00 0.00 70 1007.0
20260504040512 60 136 0.0 1.0 0.00 0.00 0.00 69 1007.1
20260504040048 60 136 0.0 2.0 0.00 0.00 0.00 69 1007.2
20260504035520 60 136 0.0 3.0 0.00 0.00 0.00 69 1007.2
20260504035017 60 136 1.0 3.0 0.00 0.00 0.00 69 1007.3
20260504034537 60 136 2.0 4.0 0.00 0.00 0.00 69 1007.3
20260504034013 60 145 2.0 4.0 0.00 0.00 0.00 69 1007.5
20260504033516 60 131 2.0 4.0 0.00 0.00 0.00 68 1007.6
20260504033051 61 118 2.0 4.0 0.00 0.00 0.00 67 1007.7
20260504032515 61 80 2.0 4.0 0.00 0.00 0.00 65 1007.7
20260504032014 61 62 1.0 3.0 0.00 0.00 0.00 64 1007.7
20260504031547 61 62 0.0 1.0 0.00 0.00 0.00 63 1007.7
20260504031015 61 62 0.0 1.0 0.00 0.00 0.00 64 1007.7
20260504030514 61 62 0.0 2.0 0.00 0.00 0.00 62 1007.7
20260504030040 61 62 0.0 2.0 0.00 0.00 0.00 63 1007.7
20260504025514 62 62 1.0 2.0 0.00 0.00 0.00 63 1007.6
20260504025019 62 62 1.0 2.0 0.00 0.00 0.00 62 1007.6
20260504024555 62 62 1.0 2.0 0.00 0.00 0.00 62 1007.6
20260504024017 62 85 1.0 3.0 0.00 0.00 0.00 62 1007.5
20260504023516 63 85 1.0 4.0 0.00 0.00 0.00 62 1007.5
20260504023050 63 85 1.0 3.0 0.00 0.00 0.00 61 1007.5
20260504022516 64 85 1.0 4.0 0.00 0.00 0.00 59 1007.5
20260504022017 65 88 2.0 4.0 0.00 0.00 0.00 59 1007.6
20260504021551 66 96 2.0 6.0 0.00 0.00 0.00 57 1007.4
20260504021015 67 104 3.0 6.0 0.00 0.00 0.00 55 1007.5
20260504020516 68 115 2.0 4.0 0.00 0.00 0.00 54 1007.4
20260504020048 68 115 2.0 4.0 0.00 0.00 0.00 52 1007.3
20260504015516 67 177 1.0 2.0 0.00 0.00 0.00 55 1007.2
20260504015016 67 177 0.0 2.0 0.00 0.00 0.00 58 1007.3
20260504014546 66 240 1.0 3.0 0.00 0.00 0.00 61 1007.2
20260504014018 66 240 2.0 3.0 0.00 0.00 0.00 66 1007.1
20260504013514 67 105 0.0 2.0 0.00 0.00 0.00 60 1007.2
20260504013049 67 105 1.0 3.0 0.00 0.00 0.00 59 1007.1
20260504012517 67 105 2.0 3.0 0.00 0.00 0.00 59 1007.0
20260504012014 68 105 2.0 4.0 0.00 0.00 0.00 58 1007.1
20260504011545 69 98 2.0 4.0 0.00 0.00 0.00 57 1007.2
20260504011016 70 98 2.0 3.0 0.00 0.00 0.00 55 1007.2
20260504010517 70 98 0.0 3.0 0.00 0.00 0.00 55 1007.2
20260504010050 70 98 1.0 4.0 0.00 0.00 0.00 55 1007.3
20260504005516 71 96 3.0 4.0 0.00 0.00 0.00 56 1007.3
20260504005015 72 97 3.0 4.0 0.00 0.00 0.00 54 1007.3
20260504004611 72 110 0.0 2.0 0.00 0.00 0.00 57 1007.3
20260504004014 72 110 0.0 2.0 0.00 0.00 0.00 52 1007.5
20260504003516 72 110 0.0 1.0 0.00 0.00 0.00 58 1007.4
20260504003043 72 110 0.0 2.0 0.00 0.00 0.00 55 1007.4
20260504002516 72 110 1.0 2.0 0.00 0.00 0.00 55 1007.4
20260504002014 73 110 1.0 3.0 0.00 0.00 0.00 55 1007.5
20260504001549 73 110 1.0 4.0 0.00 0.00 0.00 54 1007.4
20260504001017 73 113 2.0 4.0 0.00 0.00 0.00 52 1007.4
20260504000519 74 117 2.0 4.0 0.00 0.00 0.00 52 1007.4
20260504000055 74 105 2.0 4.0 0.00 0.00 0.00 51 1007.6
20260503235516 74 100 2.0 4.0 0.00 0.00 0.00 50 1007.7
20260503235016 75 104 2.0 4.0 0.00 0.00 0.00 48 1007.8
20260503234553 75 103 2.0 6.0 0.00 0.00 0.00 49 1008.0
20260503234018 75 112 3.0 6.0 0.00 0.00 0.00 48 1007.9
20260503233517 76 106 2.0 4.0 0.00 0.00 0.00 51 1008.0
20260503233047 76 105 2.0 3.0 0.00 0.00 0.00 51 1008.1
20260503232516 76 111 1.0 4.0 0.00 0.00 0.00 51 1008.0
20260503232018 76 97 2.0 4.0 0.00 0.00 0.00 49 1008.0
20260503231555 77 96 2.0 6.0 0.00 0.00 0.00 49 1008.1
20260503231015 77 110 3.0 6.0 0.00 0.00 0.00 45 1008.3
20260503230517 77 111 3.0 6.0 0.00 0.00 0.00 45 1008.3
20260503230054 77 109 2.0 6.0 0.00 0.00 0.00 48 1008.4
20260503225513 78 92 3.0 6.0 0.00 0.00 0.00 47 1008.6
20260503225017 78 88 3.0 5.0 0.00 0.00 0.00 46 1008.7
20260503224552 79 86 2.0 8.0 0.00 0.00 0.00 47 1008.7
20260503224017 79 92 3.0 8.0 0.00 0.00 0.00 42 1008.7
20260503223519 79 74 3.0 7.0 0.00 0.00 0.00 45 1008.8
20260503223058 79 90 2.0 6.0 0.00 0.00 0.00 46 1008.9
20260503222514 79 111 3.0 6.0 0.00 0.00 0.00 42 1009.0
20260503222016 80 92 3.0 6.0 0.00 0.00 0.00 49 1009.1
20260503221557 80 63 2.0 4.0 0.00 0.00 0.00 43 1009.3
20260503221017 80 67 1.0 4.0 0.00 0.00 0.00 45 1009.4
20260503220518 80 94 2.0 4.0 0.00 0.00 0.00 47 1009.3
20260503220107 80 80 2.0 3.0 0.00 0.00 0.00 44 1009.5
20260503215516 80 98 2.0 5.0 0.00 0.00 0.00 42 1009.6
20260503215016 81 66 2.0 7.0 0.00 0.00 0.00 38 1009.5
20260503214610 81 46 1.0 7.0 0.00 0.00 0.00 38 1009.7
20260503214016 82 66 3.0 5.0 0.00 0.00 0.00 44 1009.7
20260503213519 82 34 2.0 6.0 0.00 0.00 0.00 43 1009.8
20260503213100 83 62 3.0 6.0 0.00 0.00 0.00 40 1009.9
20260503212514 83 57 3.0 6.0 0.00 0.00 0.00 37 1009.8
20260503212017 83 348 2.0 3.0 0.00 0.00 0.00 33 1009.9
20260503211607 83 26 0.0 4.0 0.00 0.00 0.00 36 1010.0
20260503211016 83 26 1.0 4.0 0.00 0.00 0.00 32 1010.0
20260503210516 83 51 1.0 4.0 0.00 0.00 0.00 32 1010.1
20260503210107 82 9 1.0 5.0 0.00 0.00 0.00 32 1010.1
20260503205524 82 306 1.0 6.0 0.00 0.00 0.00 34 1010.3
20260503205016 82 306 3.0 6.0 0.00 0.00 0.00 36 1010.4